Regional Weather Roundup
Issued by NWS

Home | Current Version | Previous Version | Text Only | Print | Product List | Glossary Off
Versions: 1 2 3 4 5 6 7 8 9 10 11 12 13 14 15 16 17 18 19 20 21 22 23 24 25 26 27 28 29 30 31 32 33 34 35 36 37 38 39 40 41 42 43 44 45 46 47 48 49 50

000
ASUS43 KTOP 281459
RWRKS

WEATHER ROUNDUP FOR KANSAS
NATIONAL WEATHER SERVICE GOODLAND KS
1000 AM CDT SUN MAY 28 2017

NOTE:  "FAIR" INDICATES FEW OR NO CLOUDS BELOW 12,000 FEET WITH NO
SIGNIFICANT WEATHER AND/OR OBSTRUCTIONS TO VISIBILITY.

KSZ001>006-013>018-027>032-041>047-281600-
NORTHWEST KANSAS

CITY           SKY/WX    TMP DP  RH WIND       PRES   REMARKS
GOODLAND       SUNNY     62  47  57 NW14G23   30.17R
HAYS           SUNNY     68  52  56 W12       30.08R
HILL CITY      SUNNY     66  49  54 NW16      30.09R
RUSSELL        SUNNY     67  51  56 NW15      30.05S
$$

KSZ061>065-074>080-084>089-281600-
SOUTHWEST KANSAS

CITY           SKY/WX    TMP DP  RH WIND       PRES   REMARKS
DODGE CITY     SUNNY     66  48  52 NW10      30.14R
ELKHART          N/A     62  40  44 MISG        N/A
GARDEN CITY    SUNNY     65  48  54 NW18      30.15R
GREAT BEND     SUNNY     68  53  58 NW12      30.08S
LIBERAL        SUNNY     65  50  58 N15       30.19R
$$

KSZ066>073-081>083-090>101-281600-
SOUTHEAST KANSAS

CITY           SKY/WX    TMP DP  RH WIND       PRES   REMARKS
CHANUTE        SUNNY     72  56  57 N8        29.99R
COFFEYVILLE    SUNNY     73  61  65 NE7       30.00R
HUTCHINSON     SUNNY     70  51  51 W9        30.05R
MEDICINE LODGE   N/A     70  49  47 N9        30.08R
NEWTON         SUNNY     69  53  56 NW12      30.05R
PARSONS        SUNNY     72  58  61 N9        30.00R
WICHITA INTL   MOSUNNY   70  54  56 NW12      30.04R
WICHITA JABRA  SUNNY     70  56  61 NW9       30.03R
WINFIELD       SUNNY     72  58  61 N9        30.05R
$$

KSZ007>012-019>026-033>040-048>060-102>105-281600-
NORTHEAST KANSAS

CITY           SKY/WX    TMP DP  RH WIND       PRES   REMARKS
CONCORDIA      SUNNY     68  54  60 W9        30.01R
EMPORIA        SUNNY     69  56  62 NW12      30.00R
LAWRENCE       SUNNY     70  55  59 W14       29.96R
MANHATTAN      SUNNY     70  56  61 W8        29.99S
OLATHE IND     SUNNY     69  58  67 N12       29.96R
OLATHE EXE     SUNNY     69  58  67 N12       29.95R
SALINA         SUNNY     70  54  56 NW9       30.04R
TOPEKA BILLARD SUNNY     69  58  67 VRB7      29.96S
TOPEKA FORBES  SUNNY     71  56  58 NW10      29.97R
$$




USA.gov is the U.S. government's official web portal to all federal, state and local government web resources and services.